Weather History for Saskatoon, SK

Change the Weather History Date:

Tuesday, October 30, 2012

  Actual Average Record
Temperature  
Mean Temperature 32 °F -  
Max Temperature 33 °F 30 °F 59 °F (1999)
Min Temperature 32 °F 13 °F 6 °F (1996)
Degree Days  
Heating Degree Days 32    
Moisture  
Dew Point 32 °F    
Average Humidity 97    
Maximum Humidity 100    
Minimum Humidity 87    
Precipitation  
Precipitation 0.00 in 0.02 in - ()
Sea Level Pressure  
Sea Level Pressure 29.98 in    
Wind  
Wind Speed 7 mph ()    
Max Wind Speed 12 mph    
Max Gust Speed -    
Visibility 4.2 miles    
Events Fog    
Averages and records for this station are not official NWS values.
T = Trace of Precipitation, MM = Missing Value Source: Averaged Metar Reports

Daily Weather History Graph

Daily Weather History Graph

Search for Another Location

Airport:

Trip Planner

Search our weather history database for the weather conditions in past years. The results will help you decide how hot, cold, wet, or windy it might be!

Date:

Astronomy

Oct. 30, 2012 Rise Set
Actual Time 7:59 AM CST 5:40 PM CST
Civil Twilight 7:23 AM CST 6:15 PM CST
Nautical Twilight 6:43 AM CST 6:55 PM CST
Astronomical Twilight 6:04 AM CST 7:35 PM CST
Moon 6:00 PM CST (10/30) 8:59 AM CST (10/30)
Length of Visible Light 10h 52m
Length of Day
9h 40m
Full, 99% of the Moon is Illuminated
Oct 30
Full
Nov 6
Last Quarter
Nov 13
New
Nov 20
First Quarter
Nov 28
Full

Hourly Weather History & Observations

Time (CST) Temp. Windchill Dew Point Humidity Pressure Visibility Wind Dir Wind Speed Gust Speed Precip Events Conditions
12:00 AM 33.8 °F 25.3 °F 32.0 °F 93% 29.97 in 3.0 mi SE 11.5 mph - N/A   Light Drizzle
1:00 AM 33.8 °F 25.8 °F 32.0 °F 93% 29.96 in 5.0 mi SE 10.4 mph - N/A   Light Drizzle
1:34 AM 33.8 °F 27.0 °F 32.0 °F 93% 29.96 in 6.0 mi SE 8.1 mph - N/A   Overcast
2:00 AM 33.8 °F 26.4 °F 32.0 °F 93% 29.95 in 3.0 mi SE 9.2 mph - N/A   Light Drizzle
2:26 AM 33.8 °F 27.7 °F 32.0 °F 93% 29.96 in 2.0 mi SSE 6.9 mph - N/A   Light Drizzle
3:00 AM 33.8 °F 29.6 °F 32.0 °F 93% 29.97 in 2.0 mi SSE 4.6 mph - N/A   Light Drizzle
3:32 AM 33.8 °F 28.6 °F 32.0 °F 93% 29.96 in 1.0 mi SE 5.8 mph - N/A   Light Drizzle
4:00 AM 33.8 °F 29.6 °F 32.0 °F 93% 29.96 in 0.5 mi ESE 4.6 mph - N/A Fog Light Drizzle
5:00 AM 33.8 °F 29.6 °F 32.0 °F 93% 29.96 in 0.5 mi SE 4.6 mph - N/A Fog Light Drizzle
6:00 AM 33.8 °F 30.8 °F 32.0 °F 93% 29.96 in 0.5 mi ESE 3.5 mph - N/A Fog Light Drizzle
7:00 AM 33.8 °F 29.6 °F 33.8 °F 100% 29.95 in 0.5 mi SSE 4.6 mph - N/A Fog Light Drizzle
8:00 AM 33.8 °F 27.7 °F 33.8 °F 100% 29.96 in 0.5 mi South 6.9 mph - N/A Fog Light Drizzle
8:39 AM 33.8 °F 27.0 °F 33.8 °F 100% 29.97 in 0.5 mi SSW 8.1 mph - N/A Fog Light Drizzle
9:00 AM 33.8 °F 26.4 °F 33.8 °F 100% 29.97 in 0.5 mi SSW 9.2 mph - N/A Fog Light Drizzle
9:23 AM 33.8 °F 28.6 °F 33.8 °F 100% 29.96 in 0.8 mi SSW 5.8 mph - N/A   Light Drizzle
10:00 AM 33.8 °F 28.6 °F 33.8 °F 100% 29.96 in 0.8 mi South 5.8 mph - N/A   Overcast
11:00 AM 33.8 °F 27.0 °F 33.8 °F 100% 29.97 in 0.8 mi SW 8.1 mph - N/A   Overcast
11:27 AM 33.8 °F 25.8 °F 33.8 °F 100% 29.97 in 3.0 mi SW 10.4 mph - N/A   Overcast
12:00 PM 33.8 °F 25.8 °F 33.8 °F 100% 29.98 in 6.0 mi WSW 10.4 mph - N/A   Overcast
12:43 PM 33.8 °F 25.8 °F 32.0 °F 93% 29.96 in 4.0 mi SW 10.4 mph - N/A   Overcast
1:00 PM 32.0 °F 24.2 °F 32.0 °F 100% 29.96 in 4.0 mi SW 9.2 mph - N/A   Overcast
2:00 PM 32.0 °F 24.2 °F 32.0 °F 100% 29.96 in 2.0 mi WSW 9.2 mph - N/A   Overcast
3:00 PM 32.0 °F 26.4 °F 32.0 °F 100% 29.95 in 4.0 mi West 5.8 mph - N/A   Overcast
4:00 PM 33.8 °F 28.6 °F 32.0 °F 93% 29.95 in 6.0 mi NW 5.8 mph - N/A   Overcast
5:00 PM 33.8 °F 28.6 °F 32.0 °F 93% 29.99 in 12.0 mi WNW 5.8 mph - N/A   Overcast
6:00 PM 32.0 °F 23.6 °F 32.0 °F 100% 30.00 in 12.0 mi NW 10.4 mph - N/A   Overcast
7:00 PM 32.0 °F 27.5 °F 32.0 °F 100% 30.01 in 8.0 mi WNW 4.6 mph - N/A   Overcast
8:00 PM 32.0 °F 25.6 °F 32.0 °F 100% 30.03 in 6.0 mi WNW 6.9 mph - N/A   Light Drizzle
8:34 PM 32.0 °F 25.6 °F 32.0 °F 100% 30.03 in 6.0 mi NW 6.9 mph - N/A   Light Drizzle
9:00 PM 32.0 °F 23.0 °F 32.0 °F 100% 30.04 in 6.0 mi NW 11.5 mph - N/A   Overcast
10:00 PM 32.0 °F 24.2 °F 32.0 °F 100% 30.06 in 8.0 mi NW 9.2 mph - N/A   Light Drizzle
10:52 PM 33.8 °F 26.4 °F 32.0 °F 93% 30.07 in 12.0 mi North 9.2 mph - N/A   Overcast
11:00 PM 33.8 °F 26.4 °F 30.2 °F 87% 30.08 in 12.0 mi North 9.2 mph - N/A   Overcast